Roanoke, VA

1:28 PM EDT on March 26, 2017 (GMT -0400)
Roanoke Regional-Woodrum

Weather History for KROA - November, 2011

Change the Weather History Date:

Friday, November 25, 2011

  Actual Average Record
Temperature  
Mean Temperature 53 °F 45 °F  
Max Temperature 69 °F 55 °F 73 °F (1973)
Min Temperature 36 °F 35 °F 9 °F (1950)
Degree Days  
Heating Degree Days 12 20  
Month to date heating degree days 358 401  
Since 1 July heating degree days 644 698  
Cooling Degree Days 0 0  
Month to date cooling degree days 0 0  
Year to date cooling degree days 1549 1207  
Growing Degree Days 2 (Base 50)    
Moisture  
Dew Point 29 °F    
Average Humidity 46    
Maximum Humidity 76    
Minimum Humidity 15    
Precipitation  
Precipitation 0.00 in 0.11 in 2.18 in (1964)
Month to date precipitation 2.23 2.84  
Year to date precipitation 38.77 37.75  
Snow  
Snow 0.00 in - - ()
Month to date snowfall 0.0  
Since 1 July snowfall T  
Since 1 September snowfall T  
Snow Depth 0.00 in    
Sea Level Pressure  
Sea Level Pressure 30.31 in    
Wind  
Wind Speed 5 mph (WNW)    
Max Wind Speed 13 mph    
Max Gust Speed 17 mph    
Visibility 10 miles    
Events      
T = Trace of Precipitation, MM = Missing Value Source: NWS Daily Summary

Daily Weather History Graph

Daily Weather History Graph

Search for Another Location

Airport or City:

Trip Planner

Search our weather history database for the weather conditions in past years. The results will help you decide how hot, cold, wet, or windy it might be!

Date:

Astronomy

Nov. 25, 2011 Rise Set
Actual Time 7:09 AM EST 5:04 PM EST
Civil Twilight 6:40 AM EST 5:32 PM EST
Nautical Twilight 6:08 AM EST 6:04 PM EST
Astronomical Twilight 5:37 AM EST 6:35 PM EST
Moon 7:34 AM EST (11/25) 5:31 PM EST (11/25)
Length of Visible Light 10h 51m
Length of Day
9h 54m
New Moon, 0% of the Moon is Illuminated
Nov 25
New Moon
Dec 2
First Quarter
Dec 10
Full
Dec 17
Last Quarter
Dec 24
New

Hourly Weather History & Observations

Time (EST) Temp. Windchill Dew Point Humidity Pressure Visibility Wind Dir Wind Speed Gust Speed Precip Events Conditions
12:54 AM 41.0 °F - 30.9 °F 67% 30.35 in 10.0 mi Calm Calm - N/A   Clear
1:54 AM 41.0 °F 39.0 °F 30.9 °F 67% 30.35 in 10.0 mi WSW 3.5 mph - N/A   Clear
2:54 AM 39.0 °F - 30.9 °F 73% 30.35 in 10.0 mi Calm Calm - N/A   Clear
3:54 AM 41.0 °F 37.1 °F 30.9 °F 67% 30.34 in 10.0 mi NW 5.8 mph - N/A   Clear
4:54 AM 39.2 °F 35.0 °F 30.2 °F 70% 30.33 in 10.0 mi NNW 5.8 mph - N/A   Clear
5:54 AM 41.0 °F 37.1 °F 30.9 °F 67% 30.34 in 10.0 mi NNW 5.8 mph - N/A   Clear
6:54 AM 37.9 °F 33.5 °F 30.0 °F 73% 30.36 in 10.0 mi North 5.8 mph - N/A   Clear
7:54 AM 37.0 °F 31.6 °F 30.9 °F 79% 30.38 in 10.0 mi NNE 6.9 mph - N/A   Clear
8:54 AM 42.1 °F 40.2 °F 33.1 °F 70% 30.38 in 10.0 mi North 3.5 mph - N/A   Clear
9:54 AM 51.1 °F - 35.1 °F 54% 30.37 in 10.0 mi Calm Calm - N/A   Clear
10:54 AM 57.0 °F - 30.9 °F 37% 30.35 in 10.0 mi West 6.9 mph - N/A   Clear
11:54 AM 61.0 °F - 28.9 °F 30% 30.32 in 10.0 mi West 11.5 mph - N/A   Clear
12:54 PM 64.0 °F - 28.9 °F 27% 30.29 in 10.0 mi West 11.5 mph - N/A   Clear
1:54 PM 66.9 °F - 25.0 °F 21% 30.26 in 10.0 mi WSW 10.4 mph - N/A   Clear
2:54 PM 68.0 °F - 23.0 °F 18% 30.24 in 10.0 mi WSW 9.2 mph - N/A   Clear
3:54 PM 68.0 °F - 19.4 °F 16% 30.24 in 10.0 mi WSW 9.2 mph - N/A   Clear
4:54 PM 64.0 °F - 21.9 °F 20% 30.23 in 10.0 mi West 5.8 mph - N/A   Clear
5:54 PM 62.1 °F - 21.9 °F 21% 30.25 in 10.0 mi SSE 3.5 mph - N/A   Clear
6:54 PM 55.0 °F - 25.0 °F 31% 30.26 in 10.0 mi WNW 3.5 mph - N/A   Clear
7:54 PM 48.0 °F - 28.9 °F 48% 30.27 in 10.0 mi WSW 3.5 mph - N/A   Clear
8:54 PM 44.6 °F - 28.4 °F 53% 30.27 in 10.0 mi Calm Calm - N/A   Clear
9:54 PM 45.0 °F - 30.0 °F 56% 30.27 in 10.0 mi Calm Calm - N/A   Clear
10:54 PM 42.8 °F - 30.2 °F 61% 30.27 in 10.0 mi Calm Calm - N/A   Clear
11:54 PM 42.1 °F - 30.9 °F 65% 30.28 in 10.0 mi Calm Calm - N/A   Clear